www.pogodaiklimat.ru
ПОГОДА в Джонстауне
Время
и дата
21:35 23.06
21:54 23.06
22:54 23.06
23:21 23.06
23:54 23.06
00:32 24.06
00:54 24.06
01:10 24.06
01:43 24.06
01:54 24.06
02:08 24.06
02:43 24.06
02:51 24.06
02:54 24.06
03:15 24.06
03:23 24.06
03:30 24.06
03:37 24.06
03:54 24.06
04:09 24.06
04:54 24.06
05:14 24.06
05:54 24.06
06:54 24.06
07:54 24.06
08:04 24.06
08:14 24.06
08:41 24.06
08:54 24.06
09:04 24.06
09:54 24.06
10:54 24.06
11:54 24.06
12:54 24.06
13:54 24.06
14:54 24.06
15:54 24.06
16:54 24.06
17:54 24.06
18:54 24.06
19:54 24.06
20:54 24.06
21:54 24.06
22:54 24.06
23:54 24.06
00:54 25.06
01:54 25.06
02:54 25.06
Ветер
(напр.,м/с)
Видим. Явления Облачность Т
(С)
Тd
(С)
f
(%)
Тe
(С)
Тes
(С)
Комфортность P
(гПа)
Po
(гПа)
Тmin
(С)
Tmax
(С)
R
(мм)
R24
(мм)
S
(см)
З 3 16 км 10/10 480 м +20.6 +18.9 90 +25 +25 комфорт 927.8
З 3 16 км 10/10 420 м +20.6 +18.9 90 +25 +25 комфорт 1006.8 928.1 0.3
З 3 16 км 10/10 360 м +20.6 +18.9 90 +25 +25 комфорт 1006.8 928.1
З 4 16 км 8/8 300 м +19.4 +17.8 90 +22 +22 комфорт 927.8
З 4
{8}
16 км 8/8 420 м +19.4 +17.2 87 +21 +21 комфорт 1006.5 927.8
З 4 16 км 8/8 450 м +18.9 +17.2 90 +20 +20 927.8
З 3 16 км 10/10 390 м +18.9 +17.2 90 +20 +20 1006.8 927.8 +18.9 +21.7 0.3
З 3 16 км 10/10 390 м +18.9 +17.2 90 +20 +20 928.1
ЮЗ 3 16 км 10/10 270 м +18.9 +17.2 90 +20 +20 928.1
З 4 16 км 10/10 270 м +18.9 +17.2 90 +20 +20 1007.1 928.1
З 2 16 км 10/10 360 м +18.3 +17.2 93 +19 +19 928.1
СЗ 5 16 км 10/10 330 м +18.3 +16.1 87 +18 +18 928.1
СЗ 6
{9}
16 км 10/10 330 м +18.0 +16.0 88 +17 +17 928.1
СЗ 6
{9}
16 км 10/10 330 м +18.3 +16.1 87 +18 +18 1007.2 928.1
З 6 16 км 8/8 300 м +17.8 +16.1 90 +17 +17 928.1
СЗ 5 16 км 8/8 300 м +17.8 +16.1 90 +17 +17 928.5
СЗ 6 16 км 8/8 300 м +17.8 +16.1 90 +17 +17 928.5
З 5 16 км 8/8 300 м +17.8 +16.1 90 +17 +17 928.5
СЗ 8
{11}
16 км 8/8 300 м +17.8 +15.0 84 +17 +17 1007.6 928.8
СЗ 5 16 км 5/5 330 м +17.2 +14.4 84 +17 +17 928.8
СЗ 6 16 км 2/2 390 м +16.1 +14.4 90 +15 +15 1008.9 929.4
СЗ 7 16 км 2/2 270 м +16.1 +13.9 87 +15 +15 929.7
СЗ 6 16 км 2/2 1500 м +16.1 +13.3 83 +15 +15 1009.7 930.0
СЗ 8 16 км 5/5 480 м +16.7 +12.2 75 +15 +15 1010.6 930.9 +16.1 +18.9 10.2
СЗ 7 16 км 5/5 510 м +17.8 +12.8 73 +17 +17 1011.4 931.6
СЗ 7 16 км 8/8 510 м +16.7 +12.2 75 +15 +16 931.9
СЗ 6 16 км 5/5 510 м +17.8 +12.8 73 +17 +19 931.9
СЗ 7
{10}
16 км 8/8 630 м +18.3 +12.2 68 +18 +18 932.2
СЗ 6 16 км 8/8 690 m
[Ac]
+18.3 +12.2 68 +18 +19 1012.0 932.2
СЗ 7
{10}
16 км 5/5 720 м +18.9 +12.8 68 +19 +21 932.2
С 5
{11}
16 км 2/2 690 м +20.0 +11.7 59 +21 +26 комфорт 1012.0 932.5
СЗ 5
{11}
16 км ясно +21.7 +12.2 55 +24 +32 комфорт 1012.5 932.8
С 5
{9}
16 км 8/8 1200 м +22.2 +11.7 51 +24 +26 комфорт 1013.1 933.4
С 6
{8}
16 км 8/8 1200 м +21.7 +11.7 53 +24 +25 комфорт 1013.4 933.8 +16.1 +22.8
СЗ 7
{11}
16 км 2/2 1380 м +23.9 +11.1 45 +25 +30 комфорт 1013.2 933.4
З 7
{10}
16 км 5/5 1410 м +23.9 +11.7 46 +25 +28 комфорт 1013.1 933.4
СЗ 8
{11}
16 км 2/2 1500 м +23.9 +11.1 45 +25 +27 комфорт 1013.3 933.8
СЗ 5 16 км ясно +23.9 +10.6 43 +25 +30 комфорт 1013.4 933.4
СЗ 6 16 км ясно +23.3 +9.4 41 +25 +27 комфорт 1013.7 934.1
СЗ 5 16 км ясно +22.2 +10.0 46 +24 +25 комфорт 1014.2 934.4 +21.7 +24.4
СЗ 4 16 км ясно +19.4 +10.6 57 +20 +21 1014.5 934.4
СЗ 3 16 км ясно +18.3 +10.0 58 +19 +19 1015.2 935.0
СЗ 4 16 км ясно +18.9 +9.4 54 +19 +19 1015.8 935.6
СЗ 2 16 км ясно +17.8 +9.4 58 +18 +18 1015.6 935.6
штиль 0 16 км ясно +17.2 +9.4 60 +17 +17 1015.7 935.6
З 2 16 км ясно +17.2 +9.4 60 +18 +18 1016.2 935.9 +16.7 +22.2
З 2 16 км ясно +16.7 +10.0 65 +17 +17 1016.5 936.6
штиль 0 16 км ясно +15.0 +10.0 72 +15 +15 1016.7 936.6
Местоположение метеостанции Johnstown-Cambria County Airport: широта 40.3161 долгота -78.8339 высота над уровнем моря 696 м.
В архиве по умолчанию представлена погода в Джонстауне за последние 1-2 суток. Обновление информации о фактической погоде в базе происходит ежечасно! Архивные данные за месяц целиком и за предыдущие месяцы Вы можете получить, выбрав интересующий диапазон дат из раскрывающегося списка и нажав кнопку "Ввод!".
Внимание! Архив погоды МЕТАР в базе сайта по станциям, не включенным в климатический монитор, хранится не более 60 дней. Нет смысла пытаться выбрать более раннюю дату.
*Определитесь, кто Вы:
Внимание! Время в таблицах - местное (без учета летнего времени). Для получения всемирного времени необходимо вычесть поправку, которая равна -5 ч.
Смотрите также архив погоды в соседних городах и на ближайших метеорологических станциях:
Партнеры нашего сайта:      
Пояснения к столбцам:
  • Ветер - указаны скорость ветра в м/с - средняя за 10 мин, порывы в срок и между сроками (в фигурных скобках) и направление, откуда дует ветер: С - северный,
  • СВ - северо-восточный, В - восточный, ЮВ - юго-восточный, Ю - южный, ЮЗ - юго-западный, З - западный, СЗ - северо-западный.
  • Видимость - горизонтальная дальность видимости в метрах или километрах. При видимости от 1 до 10 км при отсутствии осадков обычно наблюдается дымка, при ухудшении видимости до 1 км и менее - туман. В сухую погоду видимость может ухудшаться дымом, пылью или мглою.
  • Явления - указаны атмосферные явления, наблюдавшиеся в срок или в последний час перед сроком; фигурными скобками обозначены явления, наблюдавшиеся между сроками (за 1-3 часа до срока); квадратными скобками обозначены град или гололедные отложения с указанием их диаметра в мм.
  • Облачность - указаны через наклонную черту общая и нижняя облачность в баллах и высота нижней границы облаков в метрах; квадратными скобками обозначены формы облаков: Ci - перистые, Cs - перисто-слоистые, Cc - перисто-кучевые, Ac - высококучевые, As - высокослоистые, Sc - слоисто-кучевые, Ns - слоисто-дождевые, Cu - кучевые, Cb - кучево-дождевые. Подробнее классификацию облаков см. в Атласе облаков (PDF).
  • T - Температура воздуха - температура, измеренная на высоте 2 м над землей.
  • Td - Температура точки росы - температура, при понижении до которой содержащийся в воздухе водяной пар достигнет насыщения.
  • f - Относительная влажность воздуха - влажноcть воздуха, измеренная на высоте 2 м над землей.
  • Te - Эффективная температура - температура, которую ощущает одетый по сезону человек в тени. Характеристика душности погоды. При расчете учитывается влияние влажности воздуха и скорости ветра на теплоощущения человека.
  • Tes - Эффективная температура на солнце - температура, которую ощущает человек, с поправкой на солнечный нагрев. Характеристика знойности погоды. Зависит от высоты солнца над горизонтом, облачности и скорости ветра. Ночью, в пасмурную погоду, а также при ветре 12 м/с и более поправка равна нулю.
  • P - Атмосферное давление - приведенное к уровню моря атмосферное давление.
  • Po - Атмосферное давление - измеренное на уровне метеостанции атмосферное давление.
  • Tmin - Минимальная температура - минимум температуры воздуха на высоте 2 м над землей.
  • Tmax - Максимальная температура - максимум температуры воздуха на высоте 2 м над землей.
  • R - Количество осадков - Количество выпавших осадков за период времени, мм. При наведении курсора мыши на число - период времени, за который выпало указанное количество осадков.
  • R24 - Количество осадков - Количество выпавших осадков за 24 часа, мм.
  • S - Снежный покров - Высота снежного покрова, см. При наведении курсора мыши на число - состояние снежного покрова и степень покрытия местности в баллах.